HJ3GNC-17 Weather Reports


time (UTC)temp
C
wind
direction
speed
KPH
gust
KPH
rain 1hr
cm
rain 24hr
cm
rain mn
cm
humidity
%
barometer
mb
20260505174133 13 160 0.0 0.0 0.00 0.00 0.00 68 1015.0
20260505172518 13 160 0.0 0.0 0.00 0.00 0.00 68 1016.0
20260505170935 13 160 0.0 0.0 0.00 0.00 0.00 67 1016.0
20260505165353 13 160 0.0 0.0 0.00 0.00 0.00 65 1016.0
20260505163812 13 160 0.0 0.0 0.00 0.00 0.00 65 1016.0
20260505162226 13 160 0.0 0.0 0.00 0.00 0.00 65 1017.0
20260505160639 13 160 0.0 0.0 0.00 0.00 0.00 66 1017.0
20260505151930 13 170 0.0 0.0 0.00 0.00 0.00 69 1017.0
20260505150348 13 130 0.0 0.0 0.00 0.00 0.00 70 1017.0
20260505124158 8 102 3.2 3.2 0.00 0.00 0.00 98 1018.0
20260505122609 8 110 0.0 0.0 0.00 0.00 0.00 98 1018.0
20260505121027 8 0 0.0 0.0 0.00 0.00 0.00 98 1018.0
20260505115438 8 20 0.0 0.0 0.00 0.00 0.00 98 1018.0
20260505113845 8 20 0.0 0.0 0.00 0.00 0.00 98 1018.0
20260505112255 8 20 0.0 0.0 0.00 0.00 0.00 98 1018.0
20260505110712 8 20 0.0 0.0 0.00 0.00 0.00 98 1018.0
20260505101957 8 10 0.0 0.0 0.00 0.00 0.00 95 1018.0
20260505100412 9 0 0.0 0.0 0.00 0.00 0.00 94 1018.0
20260505094829 9 0 0.0 0.0 0.00 0.00 0.00 94 1018.0
20260505093247 9 0 0.0 0.0 0.00 0.00 0.00 94 1018.0
20260505091652 9 0 0.0 0.0 0.00 0.00 0.00 94 1018.0
20260505090110 9 80 0.0 0.0 0.00 0.00 0.00 94 1018.0
20260505084527 9 80 0.0 0.0 0.00 0.00 0.00 94 1018.0
20260505082942 9 80 0.0 0.0 0.00 0.00 0.00 94 1018.0
20260505081354 9 80 0.0 0.0 0.00 0.00 0.00 94 1018.0
20260505075812 9 360 0.0 0.0 0.00 0.00 0.00 95 1018.0
20260505074227 9 360 0.0 0.0 0.00 0.00 0.00 93 1018.0
20260505072643 9 360 0.0 0.0 0.00 0.00 0.00 91 1018.0
20260505071059 9 360 0.0 0.0 0.00 0.00 0.00 89 1018.0
20260505065517 10 0 0.0 0.0 0.00 0.00 0.00 86 1018.0
20260505063933 10 0 0.0 0.0 0.00 0.00 0.00 85 1018.0
20260505062351 11 0 0.0 0.0 0.00 0.00 0.00 85 1018.0
20260505060806 11 0 0.0 0.0 0.00 0.00 0.00 84 1018.0
20260505055222 11 0 0.0 0.0 0.00 0.00 0.00 83 1018.0
20260505053640 11 0 0.0 0.0 0.00 0.00 0.00 81 1018.0
20260505052053 11 0 0.0 0.0 0.00 0.00 0.00 81 1019.0
20260505050508 11 0 0.0 0.0 0.00 0.00 0.00 79 1019.0
20260505040219 12 190 0.0 0.0 0.00 0.00 0.00 80 1019.0
20260505034630 12 190 0.0 0.0 0.00 0.00 0.00 80 1019.0
20260505033035 12 190 0.0 0.0 0.00 0.00 0.00 80 1019.0
20260505031449 12 190 0.0 0.0 0.00 0.00 0.00 79 1019.0
20260505025908 12 40 0.0 0.0 0.00 0.00 0.00 78 1019.0
20260505024320 12 40 0.0 0.0 0.00 0.00 0.00 77 1019.0
20260505022736 12 40 0.0 0.0 0.00 0.00 0.00 76 1019.0
20260505021153 12 40 0.0 0.0 0.00 0.00 0.00 75 1019.0
20260505015607 12 110 0.0 0.0 0.00 0.00 0.00 73 1019.0
20260505014025 12 110 0.0 0.0 0.00 0.00 0.00 73 1019.0
20260505012440 12 110 0.0 0.0 0.00 0.00 0.00 73 1018.0
20260505010858 12 110 0.0 0.0 0.00 0.00 0.00 73 1018.0
20260505005311 12 60 0.0 0.0 0.00 0.00 0.00 73 1018.0
20260505003721 12 60 0.0 0.0 0.00 0.00 0.00 73 1017.0
20260505002111 12 60 0.0 0.0 0.00 0.00 0.00 73 1016.0
20260505000529 12 60 0.0 0.0 0.00 0.00 0.00 73 1016.0
20260504234946 12 70 0.0 0.0 0.00 0.00 0.00 73 1016.0
20260504233407 12 70 0.0 0.0 0.00 0.00 0.00 73 1016.0
20260504231825 12 108 0.0 0.0 0.00 0.00 0.00 73 1015.0
20260504230237 12 108 0.0 0.0 0.00 0.00 0.00 73 1015.0
20260504224655 12 108 0.0 0.0 0.00 0.00 0.00 73 1015.0
20260504223114 12 70 0.0 0.0 0.00 0.00 0.00 73 1015.0
20260504221533 13 88 0.0 0.0 0.00 0.00 0.00 73 1014.0
20260504215948 13 60 0.0 0.0 0.00 0.00 0.00 73 1014.0
20260504214405 13 60 0.0 0.0 0.00 0.00 0.00 72 1014.0
20260504212818 13 60 0.0 0.0 0.00 0.00 0.00 71 1014.0
20260504211235 13 60 0.0 0.0 0.00 0.00 0.00 70 1014.0
20260504205652 13 57 0.0 0.0 0.00 0.00 0.00 68 1014.0
20260504204057 13 57 0.0 0.0 0.00 0.00 0.00 68 1014.0
20260504202511 13 301 0.0 0.0 0.00 0.00 0.00 68 1014.0
20260504200857 13 301 0.0 0.0 0.00 0.00 0.00 68 1014.0
20260504195314 13 301 0.0 0.0 0.00 0.00 0.00 68 1014.0
20260504193731 14 120 0.0 0.0 0.00 0.00 0.00 68 1014.0
20260504192150 15 0 0.0 0.0 0.00 0.00 0.00 68 1014.0
20260504190601 15 0 0.0 0.0 0.00 0.00 0.00 67 1014.0
20260504185020 15 150 0.0 0.0 0.00 0.00 0.00 66 1014.0
20260504183439 15 150 0.0 0.0 0.00 0.00 0.00 67 1014.0
20260504181854 15 150 0.0 0.0 0.00 0.00 0.00 67 1015.0
20260504180312 15 120 0.0 0.0 0.00 0.00 0.00 68 1015.0
20260504174730 15 120 0.0 0.0 0.00 0.00 0.00 70 1015.0